www.pogodaiklimat.ru

Погода и климат >> Архив погоды >> Россия >> Ставропольский край >> Красногвардейское


ПОГОДА в Красногвардейском

  • Прогноз погоды в Красногвардейском
  • Монитор погоды в Красногвардейском

АРХИВ ПОГОДЫ в Красногвардейском

Время (UTC), дата Ветер
(напр.,м/с)
 
Видим.   Явления Облачность Т
(С)
Тd
(С)
f
(%)
Тe
(С)
Тes
(С)
Комфортность P
(гПа)
Po
(гПа)
Тmin
(С)
Tmax
(С)
R
(мм)
R24
(мм)
S
(см)
12 12.06 В 4
{10}
20 км 10/1 600 м
[Cu med, cong Ac As Cc]
+34.3 +9.9 23 +33 +37 жарко 1008.6 1001.9
15 12.06 штиль 0 20 км 10/3 1000 м
[Cb cap Ac As Ci fib]
+27.1 +13.3 43 +29 +30 жарко 1008.7 1001.8 +34.5
18 12.06 штиль 0 20 км 10/3 1000 м
[Cb cap Ac As Ci sp]
+24.4 +16.8 63 +28 +28 душно 1009.6 1002.7
21 12.06 штиль 0 20 км ясно +21.8 +9.9 47 +23 +23 комфорт 1009.2 1002.2
00 13.06 штиль 0 20 км ясно +18.6 +9.3 55 +19 +19 1009.5 1002.4
03 13.06 штиль 0 20 км 3/0
[Ci fib]
+17.2 +9.4 60 +17 +19 1010.2 1003.1 +15.8
06 13.06 СВ 1 20 км 9/0 2000 м
[Ac As Ci sp]
+28.5 +9.7 31 +29 +34 жарко 1010.9 1004.0
09 13.06 В 4-12
{12}
20 км 10/6 600 м
[Cb cap Ac trans]
+30.4 +5.7 21 +29 +31 жарко 1010.5 1003.7
12 13.06 В 3-10
{14}
20 км 9/8 1000 м
[Cb cap Ac trans Ci fib]
+34.1 +2.8 14 +31 +33 жарко 1010.0 1003.2
15 13.06 ЮЗ 1
{10}
20 км 10/10 600 м
[Cb cap]
+25.6 +12.8 45 +27 +27 жарко 1011.4 1004.5 +34.2
18 13.06 С 1 20 км 10/4 1000 м
[Cb cap Ac cast]
+22.7 +13.9 58 +26 +26 жарко 1012.8 1005.7
21 13.06 штиль 0 20 км 9/0 2000 м
[Ac lent]
+19.6 +14.2 71 +21 +21 комфорт 1013.8 1006.7
00 14.06 В 1 20 км 10/0 2000 м
[As op]
+20.5 +13.4 64 +24 +24 комфорт 1013.7 1006.6
03 14.06 СВ 1 20 км 10/0 2000 м
[Ac As]
+21.4 +10.5 50 +23 +24 комфорт 1015.1 1008.0 +18.6
06 14.06 СВ 3
{11}
20 км 4/0
[Ci fib]
+24.7 +7.8 34 +25 +34 комфорт 1016.1 1009.2
09 14.06 СВ 2
{11}
20 км 3/0
[Ci fib]
+29.6 +7.4 25 +29 +46 жарко 1016.1 1009.3
12 14.06 В 2 20 км ясно +32.3 +8.1 22 +31 +44 жарко 1014.6 1007.8
15 14.06 СВ 2 20 км ясно +31.1 +6.9 22 +30 +32 жарко 1014.1 1007.3 +32.9
18 14.06 СВ 1 20 км ясно +24.7 +5.0 28 +24 +24 комфорт 1014.7 1007.8
21 14.06 В 1 20 км ясно +20.5 +2.7 31 +22 +22 комфорт 1014.4 1007.3
00 15.06 штиль 0 20 км ясно +17.8 +3.6 39 +18 +18 1014.1 1006.9
03 15.06 В 1 20 км ясно +17.8 +8.3 54 +19 +21 1014.7 1007.5 +16.9
06 15.06 В 2 20 км 4/0
[Ci fib]
+27.1 +15.4 49 +30 +40 душно 1013.8 1006.9
09 15.06 В 3 20 км 8/0
[Ci fib]
+31.8 +7.5 22 +30 +44 жарко 1013.2 1006.4
12 15.06 В 1 20 км 8/0
[Ci fib]
+34.6 +6.1 17 +32 +45 жарко 1011.1 1004.4
15 15.06 СВ 1 20 км 6/0
[Ci fib]
+32.7 +5.3 18 +30 +33 жарко 1010.3 1003.5 +34.8
18 15.06 штиль 0 20 км 3/0
[Ci fib]
+24.5 +6.2 31 +24 +24 комфорт 1011.0 1004.0
21 15.06 штиль 0 20 км ясно +19.9 +6.4 41 +20 +20 1010.7 1003.6
00 16.06 ЮВ 1 20 км ясно +18.0 +4.8 42 +19 +19 1009.9 1002.8
03 16.06 штиль 0 20 км ясно +18.1 +9.6 58 +18 +20 1010.3 1003.2 +16.7
06 16.06 СЗ 1 20 км 3/0
[Ci fib]
+29.4 +10.3 31 +30 +42 жарко 1010.0 1003.2
09 16.06 ЮВ 2 20 км 8/0
[Ci fib]
+34.0 +5.6 17 +32 +48 жарко 1009.2 1002.4
12 16.06 С 1 20 км 4/0
[Ci fib]
+36.2 +2.5 12 +33 +47 жарко 1008.0 1001.3
15 16.06 ЮВ 1 20 км 10/0 2000 м
[Ac und Ci fib]
+33.9 +4.0 15 +31 +33 жарко 1007.4 1000.6 +37.1
18 16.06 ЮВ 1 20 км 10/0 2000 м
[Ac und]
+24.4 +12.3 47 +26 +26 жарко 1007.0 1000.1
21 16.06 ЮЗ 1 20 км 8/0 2000 м
[Ac lent]
+19.9 +10.9 56 +22 +22 комфорт 1007.2 1000.2
00 17.06 СВ 1 20 км 4/0 2000 м
[Ac lent]
+20.9 +14.0 65 +25 +25 комфорт 1008.7 1001.7
03 17.06 В 1 20 км 10/0
[Ci fib]
+19.9 +13.6 67 +23 +24 комфорт 1009.7 1002.7 +18.2
06 17.06 В 2 20 км ясно +26.5 +12.4 42 +28 +39 жарко 1010.6 1003.7
09 17.06 СВ 1 20 км ясно +31.7 +11.1 28 +32 +54 опасность
солнечного
удара
1010.5 1003.7
12 17.06 СВ 1 20 км 4/4 600 м
[Cu med, cong]
+34.0 +10.1 23 +33 +42 жарко 1009.5 1002.7
15 17.06 СВ 1 20 км 8/8 600 м
[Cu med, cong]
+32.1 +9.1 24 +31 +32 жарко 1009.5 1002.7 +34.3
18 17.06 СВ 1 20 км 1/0 2000 м
[Ac trans]
+26.9 +9.9 34 +27 +27 жарко 1010.8 1003.9
21 17.06 штиль 0 20 км ясно +22.0 +9.2 44 +23 +23 комфорт 1011.7 1004.7
00 18.06 штиль 0 20 км ясно +18.7 +9.6 55 +19 +19 1011.8 1004.7
03 18.06 штиль 0 20 км ясно +19.9 +11.5 58 +21 +23 комфорт 1012.3 1005.2 +16.8
06 18.06 СВ 1 20 км ясно +29.8 +11.0 31 +30 +43 жарко 1012.0 1005.2
09 18.06 СВ 1 20 км ясно +33.1 +6.1 19 +31 +53 опасность
солнечного
удара
1011.6 1004.8
12 18.06 С 1 20 км ясно +35.4 +4.1 14 +32 +48 жарко 1010.1 1003.4
15 18.06 В 1 20 км ясно +33.4 +5.1 17 +31 +34 жарко 1009.4 1002.6 +35.6
18 18.06 С 1 20 км ясно +27.4 +6.8 27 +27 +27 жарко 1010.6 1003.7
21 18.06 штиль 0 20 км ясно +23.4 +7.3 36 +24 +24 комфорт 1011.0 1004.0
00 19.06 штиль 0 20 км ясно +19.8 +8.5 48 +21 +21 комфорт 1010.6 1003.6
03 19.06 штиль 0 20 км ясно +18.7 +10.6 59 +19 +21 1011.1 1004.0 +17.1
06 19.06 В 2 20 км ясно +30.6 +8.1 25 +30 +41 жарко 1010.5 1003.7
09 19.06 С 2 20 км ясно +35.0 +7.6 19 +33 +52 опасность
солнечного
удара
1010.1 1003.4

 

Местоположение метеостанции Красногвардейское (Ставропольский край, Россия): широта 45.83 долгота 41.48 высота над уровнем моря 60 м.

В архиве по умолчанию представлена погода в Красногвардейском за последнюю неделю. Архивные данные за месяц целиком и за предыдущие месяцы, начиная с января 2011 года, Вы можете получить, выбрав интересующий диапазон дат из раскрывающегося списка и нажав кнопку "Ввод!".


*Определитесь, кто Вы:
робот инопланетянин человек

Внимание! Время в таблицах - всемирное. Для получения местного времени необходимо прибавить поправку, которая равна 3 ч.

Смотрите также архив погоды в соседних городах и на ближайших метеорологических станциях:

Погода в Новоалександровске (Ставропольский край, Россия) (43 км)
Погода в Городовиковске (Калмыкия, Россия) (46 км)
Погода в Изобильном (Ставропольский край, Россия) (54 км)
Погода в Белой Глине (Краснодарский край, Россия) (54 км)
Погода в Гиганте (Ростовская область, Россия) (77 км)
Погода в Кропоткине (Краснодарский край, Россия) (84 км)
Погода в Ставрополе (Ставропольский край, Россия) (92 км)
Погода в Армавире (Краснодарский край, Россия) (99 км)
Погода в Тихорецке (Краснодарский край, Россия) (109 км)
Погода в Светлограде (Ставропольский край, Россия) (119 км)

Пояснения к столбцам:

Ветер - указаны скорость ветра в м/с - средняя за 10 мин, порывы в срок и между сроками (в фигурных скобках) и направление, откуда дует ветер: С - северный, СВ - северо-восточный, В - восточный, ЮВ - юго-восточный, Ю - южный, ЮЗ - юго-западный, З - западный, СЗ - северо-западный.
Видимость - горизонтальная дальность видимости в метрах или километрах. При видимости от 1 до 10 км при отсутствии осадков обычно наблюдается дымка, при ухудшении видимости до 1 км и менее - туман. В сухую погоду видимость может ухудшаться дымом, пылью или мглою.
Явления - указаны атмосферные явления, наблюдавшиеся в срок или в последний час перед сроком; фигурными скобками обозначены явления, наблюдавшиеся между сроками (за 1-3 часа до срока); квадратными скобками обозначены град или гололедные отложения с указанием их диаметра в мм.
Облачность - указаны через наклонную черту общая и нижняя облачность в баллах и высота нижней границы облаков в метрах; квадратными скобками обозначены формы облаков: Ci - перистые, Cs - перисто-слоистые, Cc - перисто-кучевые, Ac - высококучевые, As - высокослоистые, Sc - слоисто-кучевые, Ns - слоисто-дождевые, Cu - кучевые, Cb - кучево-дождевые. Подробнее классификацию облаков см. в Атласе облаков (PDF).
T - Температура воздуха - температура, измеренная на высоте 2 м над землей.
Td - Температура точки росы - температура, при понижении до которой содержащийся в воздухе водяной пар достигнет насыщения.
f - Относительная влажность воздуха - влажноcть воздуха, измеренная на высоте 2 м над землей.
Te - Эффективная температура - температура, которую ощущает одетый по сезону человек в тени. Характеристика душности погоды. При расчете учитывается влияние влажности воздуха и скорости ветра на теплоощущения человека.
Tes - Эффективная температура на солнце - температура, которую ощущает человек, с поправкой на солнечный нагрев. Характеристика знойности погоды. Зависит от высоты солнца над горизонтом, облачности и скорости ветра. Ночью, в пасмурную погоду, а также при ветре 12 м/с и более поправка равна нулю.
P - Атмосферное давление - приведенное к уровню моря атмосферное давление.
Po - Атмосферное давление - измеренное на уровне метеостанции атмосферное давление.
Tmin - Минимальная температура - минимум температуры воздуха на высоте 2 м над землей.
Tmax - Максимальная температура - максимум температуры воздуха на высоте 2 м над землей.
R - Количество осадков - Количество выпавших осадков за период времени, мм. При наведении курсора мыши на число - период времени, за который выпало указанное количество осадков.
R24 - Количество осадков - Количество выпавших осадков за 24 часа, мм.
S - Снежный покров - Высота снежного покрова, см. При наведении курсора мыши на число - состояние снежного покрова и степень покрытия местности в баллах.